Regional Weather Roundup
Issued by NWS Charleston, SC

Current Version | Previous Version | Graphics & Text | Print | Product List | Glossary On
Versions: 1 2 3 4 5 6 7 8 9 10 11 12 13 14 15 16 17 18 19 20 21 22 23 24 25 26 27 28 29 30 31 32 33 34 35 36 37 38 39 40 41 42 43 44 45 46 47 48 49 50
000 ASUS42 KCHS 012212 RWRCHS REGIONAL WEATHER ROUNDUP NATIONAL WEATHER SERVICE CHARLESTON SC 600 PM EDT SAT AUG 01 2015 NOTE: "FAIR" INDICATES FEW OR NO CLOUDS BELOW 12,000 FEET WITH NO SIGNIFICANT WEATHER AND/OR OBSTRUCTIONS TO VISIBILITY. NOT ALL STATIONS ARE QUALITY CONTROLLED BY THE NATIONAL WEATHER SERVICE. USE DATA WITH CAUTION...ESPECIALLY DEWPOINT OBSERVATIONS. SCZ027-030-031-034>040-042>050-012300- ...SOUTHEAST SOUTH CAROLINA... CITY SKY/WX TMP DP RH WIND PRES REMARKS N CHARLESTON MOSUNNY 85 74 69 S12 29.89S HX 92 WATERFRONT PRK N/A 82 76 82 S5 29.88S MOUNT PLEASANT LGT RAIN 84 75 74 S7 29.90R HX 92 JOHNS ISLAND FAIR 82 75 78 CALM 29.90F PINOPOLIS NOT AVBL MONCKS CORNER FAIR 88 72 58 S6 29.89S HX 94 SUMMERVILLE FAIR 88 75 66 S3 29.90S HX 97 BEAUFORT MCAS CLOUDY 78 75 90 SE3 29.90S BEAUFORT ARPT FAIR 79 77 94 CALM 29.89F FOG HILTON HEAD IS PTSUNNY 81 73 78 SE6 29.90F WALTERBORO PTCLDY 84 72 65 SE9 29.90F ALLENDALE FAIR 82 73 74 S5G12 29.88S ...SOUTHERN MIDLANDS AND PEE DEE... CITY SKY/WX TMP DP RH WIND PRES REMARKS GEORGETOWN NOT AVBL KINGSTREE NOT AVBL ORANGEBURG MOSUNNY 90 73 57 S12 29.88S HX 98 BARNWELL FAIR 86 75 70 S9 29.89R HX 95 AIKEN MOCLDY 90 55 31 NE3 29.92R MANNING RAIN 88 70 55 S8 29.88S HX 92 COLUMBIA PTSUNNY 97 60 29 MISG 29.86F HX 97 SUMTER PTSUNNY 94 60 32 E2 29.84F HX 94 FLORENCE MOSUNNY 93 62 35 SE8 29.86F HX 93 MYRTLE BEACH MOSUNNY 86 73 66 S12 29.91S HX 93 N MYRTLE BEACH MOSUNNY 84 75 74 S15 29.89S HX 92 $$ GAZ063-065-086>088-099>101-113>116-118-119-134>141-150-012300- ...SOUTHEAST GEORGIA... CITY SKY/WX TMP DP RH WIND PRES REMARKS SAVANNAH ARPT TSTM 78 75 90 N6 29.90S HUNTER AAF PTSUNNY 83 78 85 SE6 29.87R HX 92 FORT STEWART NOT AVBL STATESBORO MOSUNNY 80 80 100 SE8 29.90S SYLVANIA MOCLDY 82 78 86 SE6 29.90F HX 92 CLAXTON NOT AVBL ...CSRA...CENTRAL AND FAR SOUTHEAST GEORGIA... CITY SKY/WX TMP DP RH WIND PRES REMARKS THOMSON MOSUNNY 92 68 45 N5 29.94S HX 96 AUGUSTA-BUSH MOSUNNY 88 72 58 W10 29.87R HX 94 AUGUSTA-DANIEL MOSUNNY 92 65 40 W8 29.88F HX 94 SWAINSBORO FAIR 88 73 62 E5 29.88S HX 96 VIDALIA PTSUNNY 82 73 74 N9 29.86S EASTMAN FAIR 85 75 70 NE9G17 29.89F HX 94 HAZLEHURST FAIR 91 74 57 CALM 29.84F HX 99 ALMA MOSUNNY 90 75 61 SE8 29.84F HX 100 WAYCROSS SUNNY 91 79 68 SE7 29.85S HX 106 JESUP MOCLDY 90 77 66 SE8 29.85F HX 102 BAXLEY FAIR 91 72 52 SE3 29.84F HX 98 BRUNSWICK MOSUNNY 86 75 70 SE10 29.88S HX 95 SAINT SIMONS PTSUNNY 84 74 71 SE10G20 29.87F HX 91 $$ SCZ027-028-034-036>038-045-046-048>050-GAZ119-141-012300- ...LAKE AND SUPPLEMENTAL COASTAL OBSERVATIONS... STATION/POSITION TIME TEMP WIND PRES WAVE SWELL AIR SEA DIR/SP/G HT/PER HT/PER/DIR (UTC) (F) (DEG/KT/KT) (MB) (FT/S) (FT/S/D) UPR LAKE MARION NOT AVBL WINYAH BAY 2045 86 160/ 7 1011.0 LAKE MURRAY 2100 94 190/ 4/ 6 1010.8F ACE BASIN NERRS NOT AVBL FORT PULASKI 2100 82 87 120/ 7/ 12 1012.5F SAPELO ISLAND 2100 88 130/ 8 1012.0S $$ ANZ835-935-AMZ111-154-330-350-352-354-370-450-454-472-012300- ...C-MAN AND BUOY OBSERVATIONS... STATION/POSITION TIME TEMP WIND PRES WAVE SWELL AIR SEA DIR/SP/G HT/PER HT/PER/DIR (UTC) (F) (DEG/KT/KT) (MB) (FT/S) (FT/S/D) BUOY 41004 2150 80 84 130/ 8/ 10 1012.1F 4/ 6 3/ 6 BUOY 41008 2150 82 84 140/ 12/ 14 1011.9F 3/ 6 2/160/ 6 FOLLY BEACH CMAN 2100 81 200/ 6/ 6 1012.6F CAPERS NEARSHORE 2108 81 170/ 6/ 10 1012.5F FRIPP NEARSHORE 2100 83 170/ 12/ 12 1012.4S STATION/POSITION TIME TEMP WIND PRES WAVE SWELL AIR SEA DIR/SP/G HT/PER HT/PER/DIR (UTC) (F) (DEG/KT/KT) (MB) (FT/S) (FT/S/D) 5E ST. MARYS GA 2121 85 N/A 3/ 5 FRYING PAN BUOY 2150 81 83 210/ 10/ 12 1012.9F 4/ 7 3/160/ 7 BUOY 41025 2150 82 85 200/ 6/ 12 1012.2F 3/ 8 3/160/ 8 CAPE LOOKOUT NC 2100 82 220/ 10/ 15 1011.8F BUOY 41002 2150 83 81 210/ 14/ 17 1015.0F 6/ 6 3/230/ 7 BUOY 41010 2120 83 84 160/ 17/ 19 1014.6F ST AUGUSTINE FL 2200 80 82 200/ 9/ 11 1013.5F $$

USA.gov is the U.S. government's official web portal to all federal, state and local government web resources and services.